Creston, IA

1:25 PM CDT on April 25, 2018 (GMT -0500)
Creston Municipal

Weather History for KCSQ - February, 2014

Change the Weather History Date:

Tuesday, February 4, 2014

  Actual Average Record
Temperature  
Mean Temperature 13 °F -  
Max Temperature 21 °F 30 °F 57 °F (2005)
Min Temperature 5 °F 14 °F -20 °F (1979)
Degree Days  
Heating Degree Days 52    
Moisture  
Dew Point 13 °F    
Average Humidity 87    
Maximum Humidity 93    
Minimum Humidity 72    
Precipitation  
Precipitation 0.00 in - - ()
Sea Level Pressure  
Sea Level Pressure 30.22 in    
Wind  
Wind Speed 11 mph (NE)    
Max Wind Speed 28 mph    
Max Gust Speed 34 mph    
Visibility 3 miles    
Events Rain , Snow    
Averages and records for this station are not official NWS values.
T = Trace of Precipitation, MM = Missing Value Source: NWS Daily Summary

Daily Weather History Graph

Daily Weather History Graph

Search for Another Location

Airport or City:

Astronomy

Feb. 04, 2014 Rise Set
Actual Time 7:24 AM CST 5:38 PM CST
Civil Twilight 6:56 AM CST 6:07 PM CST
Nautical Twilight 6:23 AM CST 6:39 PM CST
Astronomical Twilight 5:51 AM CST 7:12 PM CST
Moon 10:00 AM CST (2/4) 11:36 PM CST (2/4)
Length of Visible Light 11h 11m
Length of Day
10h 13m
Waxing Crescent, 29% of the Moon is Illuminated
Feb 4
Waxing Crescent
Feb 6
First Quarter
Feb 14
Full
Feb 22
Last Quarter
Mar 1
New

Hourly Weather History & Observations

Time (CST) Temp. Windchill Dew Point Humidity Pressure Visibility Wind Dir Wind Speed Gust Speed Precip Events Conditions
12:15 AM 19.4 °F 14.3 °F 14.0 °F 80% 30.27 in 3.0 mi ENE 3.5 mph - N/A Snow Light Snow
12:35 AM 19.4 °F - 15.8 °F 86% 30.27 in - Calm Calm - N/A Snow Light Snow
12:55 AM 19.4 °F 14.3 °F 15.8 °F 86% 30.26 in 5.0 mi ENE 3.5 mph - N/A Snow Light Snow
1:15 AM 19.4 °F 12.8 °F 15.8 °F 86% 30.26 in 10.0 mi ENE 4.6 mph - N/A   Overcast
1:35 AM 19.4 °F 12.8 °F 15.8 °F 86% 30.26 in 9.0 mi NE 4.6 mph - N/A   Overcast
1:55 AM 19.4 °F 12.8 °F 17.6 °F 93% 30.26 in 4.0 mi ENE 4.6 mph - N/A Snow Light Snow
2:15 AM 19.4 °F 9.5 °F 17.6 °F 93% 30.25 in 5.0 mi NE 8.1 mph - N/A Snow Light Snow
2:35 AM 19.4 °F 10.4 °F 17.6 °F 93% 30.25 in 4.0 mi NE 6.9 mph - N/A Snow Light Snow
2:55 AM 19.4 °F 9.5 °F 17.6 °F 93% 30.26 in 5.0 mi NNE 8.1 mph - N/A Snow Light Snow
3:15 AM 19.4 °F 7.9 °F 17.6 °F 93% 30.25 in 6.0 mi NNE 10.4 mph - N/A   Overcast
3:35 AM 19.4 °F 10.4 °F 17.6 °F 93% 30.26 in 9.0 mi East 6.9 mph - N/A   Overcast
3:55 AM 19.4 °F 10.4 °F 17.6 °F 93% 30.26 in 9.0 mi East 6.9 mph - N/A   Overcast
4:15 AM 19.4 °F 11.5 °F 17.6 °F 93% 30.26 in 10.0 mi East 5.8 mph - N/A   Overcast
4:35 AM 19.4 °F 10.4 °F 17.6 °F 93% 30.26 in 10.0 mi East 6.9 mph - N/A   Overcast
4:55 AM 19.4 °F 11.5 °F 17.6 °F 93% 30.26 in 10.0 mi ENE 5.8 mph - N/A   Overcast
5:15 AM 19.4 °F 10.4 °F 17.6 °F 93% 30.26 in 8.0 mi ENE 6.9 mph - N/A   Overcast
5:35 AM 19.4 °F 12.8 °F 17.6 °F 93% 30.28 in 9.0 mi East 4.6 mph - N/A   Overcast
5:55 AM 19.4 °F 10.4 °F 17.6 °F 93% 30.28 in 9.0 mi ESE 6.9 mph - N/A   Overcast
6:15 AM 19.4 °F 10.4 °F 17.6 °F 93% 30.28 in 10.0 mi East 6.9 mph - N/A   Overcast
6:35 AM 19.4 °F 8.6 °F 17.6 °F 93% 30.28 in 5.0 mi ENE 9.2 mph - N/A   Overcast
6:55 AM 19.4 °F 7.2 °F 17.6 °F 93% 30.27 in 5.0 mi NE 11.5 mph - N/A Snow Light Snow
7:15 AM 21.2 °F 8.9 °F 17.6 °F 86% 30.27 in 6.0 mi NE 12.7 mph - N/A   Mostly Cloudy
7:35 AM 21.2 °F 9.5 °F 17.6 °F 86% 30.27 in 8.0 mi ENE 11.5 mph - N/A   Overcast
7:55 AM 21.2 °F 9.5 °F 17.6 °F 86% 30.26 in 5.0 mi ENE 11.5 mph - N/A Snow Light Snow
8:15 AM 21.2 °F 8.3 °F 17.6 °F 86% 30.25 in 4.0 mi NE 13.8 mph - N/A Snow Light Snow
8:35 AM 21.2 °F 8.3 °F 17.6 °F 86% 30.24 in 4.0 mi ENE 13.8 mph - N/A   Partly Cloudy
8:55 AM 21.2 °F 7.8 °F 17.6 °F 86% 30.24 in 2.5 mi ENE 15.0 mph - N/A Snow Light Snow
9:15 AM 21.2 °F 7.8 °F 17.6 °F 86% 30.24 in 2.5 mi ENE 15.0 mph - N/A Snow Light Snow
9:35 AM 21.2 °F 7.3 °F 17.6 °F 86% 30.24 in 3.0 mi ENE 16.1 mph - N/A   Clear
9:55 AM 21.2 °F 7.3 °F 17.6 °F 86% 30.26 in 5.0 mi ENE 16.1 mph - N/A   Scattered Clouds
10:15 AM 21.2 °F 7.3 °F 17.6 °F 86% 30.27 in 3.0 mi East 16.1 mph - N/A Snow Light Snow
10:35 AM 19.4 °F 4.5 °F 15.8 °F 86% 30.26 in 1.8 mi ENE 17.3 mph - N/A Snow Light Snow
10:55 AM 19.4 °F 5.0 °F 15.8 °F 86% 30.26 in 1.2 mi East 16.1 mph - N/A Snow Light Snow
11:15 AM 19.4 °F 4.5 °F 15.8 °F 86% 30.25 in 0.8 mi East 17.3 mph - N/A Snow Light Snow
11:35 AM 19.4 °F 6.0 °F 15.8 °F 86% 30.23 in 1.2 mi ENE 13.8 mph - N/A Snow Light Snow
11:55 AM 19.4 °F 6.6 °F 15.8 °F 86% 30.22 in 2.0 mi ENE 12.7 mph - N/A   Overcast
12:15 PM 19.4 °F 6.6 °F 14.0 °F 80% 30.21 in 2.0 mi ENE 12.7 mph - N/A   Mostly Cloudy
12:35 PM 19.4 °F 6.0 °F 15.8 °F 86% 30.20 in 1.8 mi ENE 13.8 mph - N/A Snow Light Snow
12:55 PM 19.4 °F 6.0 °F 15.8 °F 86% 30.19 in 1.5 mi ENE 13.8 mph - N/A Snow Light Snow
1:15 PM 19.4 °F 6.0 °F 15.8 °F 86% 30.20 in 0.8 mi ENE 13.8 mph - N/A Snow Light Snow
1:35 PM 19.4 °F 6.6 °F 15.8 °F 86% 30.19 in 1.0 mi NE 12.7 mph - N/A Snow Light Snow
1:55 PM 17.6 °F 1.7 °F 15.8 °F 93% 30.16 in 1.2 mi NE 18.4 mph - N/A Snow Light Snow
2:10 PM 17.6 °F 3.2 °F 15.8 °F 93% 30.16 in 1.0 mi NE 15.0 mph 20.7 mph N/A Snow Light Snow
2:35 PM 17.6 °F 3.2 °F 15.8 °F 93% 30.15 in 0.8 mi NE 15.0 mph 21.9 mph N/A Snow Light Snow
2:55 PM 17.6 °F 2.7 °F 15.8 °F 93% 30.15 in 0.5 mi NNE 16.1 mph - N/A Snow Light Snow
3:15 PM 19.4 °F 4.5 °F 15.8 °F 86% 30.16 in 0.5 mi NE 17.3 mph 23.0 mph N/A Snow Light Snow
3:35 PM 17.6 °F 1.3 °F 15.8 °F 93% 30.16 in 0.5 mi NNE 19.6 mph - N/A Snow Light Snow
3:55 PM 17.6 °F 1.7 °F 14.0 °F 86% 30.15 in 0.5 mi NNE 18.4 mph 25.3 mph N/A Snow Light Snow
4:15 PM 17.6 °F 0.5 °F 14.0 °F 86% 30.15 in 0.5 mi NNE 21.9 mph - N/A Snow Light Snow
4:35 PM 15.8 °F -1.9 °F 12.2 °F 86% 30.15 in 0.5 mi NNE 21.9 mph 27.6 mph N/A Snow Light Snow
4:55 PM 15.8 °F -1.1 °F 12.2 °F 86% 30.15 in 1.0 mi NNE 19.6 mph 26.5 mph N/A Snow Light Snow
5:15 PM 15.8 °F -1.5 °F 12.2 °F 86% 30.15 in 1.0 mi NNE 20.7 mph 26.5 mph N/A Snow Light Snow
5:35 PM 15.8 °F -1.5 °F 12.2 °F 86% 30.16 in 1.5 mi NNE 20.7 mph - N/A Rain Light Freezing Rain
5:55 PM 15.8 °F -2.3 °F 10.4 °F 79% 30.15 in 0.8 mi NNE 23.0 mph 29.9 mph N/A Snow Light Snow
6:15 PM 14.0 °F -5.1 °F 10.4 °F 86% 30.15 in 1.2 mi NNE 24.2 mph - N/A Snow Light Snow
6:35 PM 14.0 °F -5.1 °F 10.4 °F 86% 30.15 in 1.2 mi NNE 24.2 mph 32.2 mph N/A Snow Light Snow
6:55 PM 14.0 °F -5.1 °F 10.4 °F 86% 30.15 in 1.2 mi NNE 24.2 mph 34.5 mph N/A Snow Light Snow
7:15 PM 14.0 °F -6.2 °F 8.6 °F 79% 30.15 in 1.5 mi NNE 27.6 mph - N/A Rain Light Freezing Rain
7:35 PM 14.0 °F -5.1 °F 8.6 °F 79% 30.17 in 1.2 mi NNE 24.2 mph 31.1 mph N/A Snow Light Snow
7:55 PM 12.2 °F -6.3 °F 8.6 °F 85% 30.19 in 1.0 mi NNE 20.7 mph 26.5 mph N/A Rain Light Freezing Rain
8:15 PM 12.2 °F -6.3 °F 8.6 °F 85% 30.20 in 1.5 mi NNE 20.7 mph 31.1 mph N/A Snow Light Snow
8:35 PM 12.2 °F -5.8 °F 6.8 °F 79% 30.20 in 1.0 mi North 19.6 mph 25.3 mph N/A Snow Light Snow
8:55 PM 10.4 °F -8.2 °F 6.8 °F 85% 30.21 in 1.2 mi North 19.6 mph - N/A Rain Light Freezing Rain
9:15 PM 8.6 °F -11.4 °F 5.0 °F 85% 30.21 in 1.8 mi North 21.9 mph 29.9 mph N/A Rain Light Freezing Rain
9:35 PM 8.6 °F -10.5 °F 3.2 °F 79% 30.22 in 1.8 mi North 19.6 mph 29.9 mph N/A Rain Light Freezing Rain
9:55 PM 8.6 °F -12.7 °F 3.2 °F 79% 30.22 in 2.5 mi North 25.3 mph 32.2 mph N/A Rain Light Freezing Rain
10:15 PM 8.6 °F -11.0 °F 3.2 °F 79% 30.23 in 1.8 mi North 20.7 mph 31.1 mph N/A Rain Light Freezing Rain
10:35 PM 6.8 °F -13.8 °F 1.4 °F 79% 30.24 in 1.5 mi North 21.9 mph 28.8 mph N/A Rain Light Freezing Rain
10:55 PM 5.0 °F -17.9 °F -0.4 °F 78% 30.23 in 1.0 mi North 26.5 mph 33.4 mph N/A Rain Light Freezing Rain
11:10 PM 5.0 °F -16.2 °F -0.4 °F 78% 30.24 in 1.2 mi North 21.9 mph 29.9 mph N/A Rain Light Freezing Rain
11:35 PM 5.0 °F -15.7 °F -0.4 °F 78% 30.25 in 1.2 mi North 20.7 mph 31.1 mph N/A Rain Light Freezing Rain
11:55 PM 5.0 °F -16.2 °F -2.2 °F 72% 30.25 in 1.5 mi North 21.9 mph 33.4 mph N/A Rain Light Freezing Rain